Time,TemperatureF,DewpointF,PressureIn,WindDirection,WindDirectionDegrees,WindSpeedMPH,WindSpeedGustMPH,Humidity,HourlyPrecipIn,Conditions,Clouds,dailyrainin,SolarRadiationWatts/m^2,SoftwareType,DateUTC
2013-05-23 00:02:00,57.7,26.4,29.75,WSW,247,12.0,27.0,30,0.00,,,0.00,0.0,meteohub,2013-05-23 07:02:00,
2013-05-23 00:07:00,57.7,26.4,29.75,WSW,243,4.0,27.0,30,0.00,,,0.00,0.0,meteohub,2013-05-23 07:07:00,
2013-05-23 00:12:00,57.6,26.4,29.75,SW,227,9.0,27.0,30,0.00,,,0.00,0.0,meteohub,2013-05-23 07:12:00,
2013-05-23 00:17:00,57.4,26.2,29.75,SW,228,14.0,27.0,30,0.00,,,0.00,0.0,meteohub,2013-05-23 07:17:00,
2013-05-23 00:22:00,57.4,25.3,29.75,SW,223,10.0,27.0,29,0.00,,,0.00,0.0,meteohub,2013-05-23 07:22:00,
2013-05-23 00:28:00,57.4,25.3,29.75,SW,232,16.0,27.0,29,0.00,,,0.00,0.0,meteohub,2013-05-23 07:28:00,
2013-05-23 00:33:00,57.2,25.2,29.75,SSW,209,21.0,27.0,29,0.00,,,0.00,0.0,meteohub,2013-05-23 07:33:00,
2013-05-23 00:38:00,57.0,25.0,29.75,SSW,207,18.0,27.0,29,0.00,,,0.00,0.0,meteohub,2013-05-23 07:38:00,
2013-05-23 00:43:00,57.0,25.0,29.75,SSW,200,9.0,27.0,29,0.00,,,0.00,0.0,meteohub,2013-05-23 07:43:00,
2013-05-23 00:48:00,56.8,25.0,29.75,WSW,241,19.0,27.0,29,0.00,,,0.00,0.0,meteohub,2013-05-23 07:48:00,
2013-05-23 00:53:00,56.8,24.1,29.76,WSW,244,15.0,27.0,28,0.00,,,0.00,0.0,meteohub,2013-05-23 07:53:00,
2013-05-23 00:58:00,56.8,24.1,29.75,SW,227,9.0,27.0,28,0.00,,,0.00,0.0,meteohub,2013-05-23 07:58:00,
2013-05-23 01:03:00,56.8,24.1,29.75,WSW,239,11.0,27.0,28,0.00,,,0.00,0.0,meteohub,2013-05-23 08:03:00,
2013-05-23 01:08:00,56.7,23.9,29.76,SW,217,15.0,23.0,28,0.00,,,0.00,0.0,meteohub,2013-05-23 08:08:00,
2013-05-23 01:13:00,56.7,23.0,29.75,SW,231,13.0,23.0,27,0.00,,,0.00,0.0,meteohub,2013-05-23 08:13:00,
2013-05-23 01:18:00,56.7,23.0,29.75,SSW,202,13.0,23.0,27,0.00,,,0.00,0.0,meteohub,2013-05-23 08:18:00,
2013-05-23 01:23:00,56.7,23.0,29.75,SW,234,11.0,23.0,27,0.00,,,0.00,0.0,meteohub,2013-05-23 08:23:00,
2013-05-23 01:28:00,56.5,22.8,29.75,SW,224,11.0,23.0,27,0.00,,,0.00,0.0,meteohub,2013-05-23 08:28:00,
2013-05-23 01:33:00,56.5,22.8,29.75,SW,225,9.0,23.0,27,0.00,,,0.00,0.0,meteohub,2013-05-23 08:33:00,
2013-05-23 01:38:00,56.5,22.8,29.75,SW,232,13.0,23.0,27,0.00,,,0.00,0.0,meteohub,2013-05-23 08:38:00,
2013-05-23 01:43:00,56.5,21.9,29.75,SW,215,5.0,23.0,26,0.00,,,0.00,0.0,meteohub,2013-05-23 08:43:00,
2013-05-23 01:48:00,56.1,21.7,29.75,WSW,246,8.0,23.0,26,0.00,,,0.00,0.0,meteohub,2013-05-23 08:48:00,
2013-05-23 01:53:00,55.9,21.6,29.75,SW,235,15.0,23.0,26,0.00,,,0.00,0.0,meteohub,2013-05-23 08:53:00,
2013-05-23 01:58:00,55.9,21.6,29.75,WSW,258,11.0,23.0,26,0.00,,,0.00,0.0,meteohub,2013-05-23 08:58:00,
2013-05-23 02:03:00,55.8,21.4,29.75,SW,223,12.0,23.0,26,0.00,,,0.00,0.0,meteohub,2013-05-23 09:03:00,
2013-05-23 02:08:00,55.8,21.4,29.75,SW,235,16.0,23.0,26,0.00,,,0.00,0.0,meteohub,2013-05-23 09:08:00,
2013-05-23 02:13:00,55.8,21.4,29.75,SW,229,15.0,23.0,26,0.00,,,0.00,0.0,meteohub,2013-05-23 09:13:00,
2013-05-23 02:18:00,55.8,21.4,29.75,SW,229,5.0,23.0,26,0.00,,,0.00,0.0,meteohub,2013-05-23 09:18:00,
2013-05-23 02:23:00,55.8,21.4,29.75,SW,220,10.0,23.0,26,0.00,,,0.00,0.0,meteohub,2013-05-23 09:23:00,
2013-05-23 02:28:00,55.6,21.2,29.75,WSW,242,10.0,23.0,26,0.00,,,0.00,0.0,meteohub,2013-05-23 09:28:00,
2013-05-23 02:33:00,55.6,21.2,29.75,WSW,248,12.0,23.0,26,0.00,,,0.00,0.0,meteohub,2013-05-23 09:33:00,
2013-05-23 02:38:00,55.6,21.2,29.75,SW,229,5.0,23.0,26,0.00,,,0.00,0.0,meteohub,2013-05-23 09:38:00,
2013-05-23 02:43:00,55.4,20.1,29.75,SW,232,8.0,23.0,25,0.00,,,0.00,0.0,meteohub,2013-05-23 09:43:00,
2013-05-23 02:48:00,55.0,19.8,29.75,West,259,9.0,23.0,25,0.00,,,0.00,0.0,meteohub,2013-05-23 09:48:00,
2013-05-23 02:53:00,55.0,19.8,29.75,WSW,248,9.0,23.0,25,0.00,,,0.00,0.0,meteohub,2013-05-23 09:53:00,
2013-05-23 02:58:00,55.0,18.9,29.75,WSW,242,8.0,23.0,24,0.00,,,0.00,0.0,meteohub,2013-05-23 09:58:00,
2013-05-23 03:03:00,54.9,18.7,29.75,SW,224,7.0,21.0,24,0.00,,,0.00,0.0,meteohub,2013-05-23 10:03:00,
2013-05-23 03:08:00,54.9,18.7,29.75,SW,236,9.0,21.0,24,0.00,,,0.00,0.0,meteohub,2013-05-23 10:08:00,
2013-05-23 03:13:00,54.9,18.7,29.75,WSW,241,6.0,21.0,24,0.00,,,0.00,0.0,meteohub,2013-05-23 10:13:00,
2013-05-23 03:18:00,54.9,19.8,29.75,WSW,239,9.0,21.0,25,0.00,,,0.00,0.0,meteohub,2013-05-23 10:18:00,
2013-05-23 03:23:00,54.7,19.6,29.75,SW,228,11.0,21.0,25,0.00,,,0.00,0.0,meteohub,2013-05-23 10:23:00,
2013-05-23 03:28:00,54.7,19.6,29.75,SW,221,11.0,21.0,25,0.00,,,0.00,0.0,meteohub,2013-05-23 10:28:00,
2013-05-23 03:33:00,54.9,19.8,29.75,SW,229,13.0,21.0,25,0.00,,,0.00,0.0,meteohub,2013-05-23 10:33:00,
2013-05-23 03:39:00,54.9,19.8,29.75,SW,228,5.0,21.0,25,0.00,,,0.00,0.0,meteohub,2013-05-23 10:39:00,
2013-05-23 03:44:00,55.0,19.8,29.75,SW,228,15.0,21.0,25,0.00,,,0.00,0.0,meteohub,2013-05-23 10:44:00,
2013-05-23 03:49:00,55.0,19.8,29.75,SW,224,9.0,21.0,25,0.00,,,0.00,0.0,meteohub,2013-05-23 10:49:00,
2013-05-23 03:54:00,55.0,19.8,29.75,SW,232,13.0,21.0,25,0.00,,,0.00,0.0,meteohub,2013-05-23 10:54:00,
2013-05-23 03:59:00,54.9,18.7,29.75,SW,223,10.0,20.0,24,0.00,,,0.00,0.0,meteohub,2013-05-23 10:59:00,
2013-05-23 04:04:00,54.9,18.7,29.75,SW,234,6.0,20.0,24,0.00,,,0.00,0.0,meteohub,2013-05-23 11:04:00,
2013-05-23 04:09:00,54.7,17.6,29.75,SW,229,9.0,20.0,23,0.00,,,0.00,0.0,meteohub,2013-05-23 11:09:00,
2013-05-23 04:14:00,54.5,16.3,29.75,WSW,239,13.0,20.0,22,0.00,,,0.00,0.0,meteohub,2013-05-23 11:14:00,
2013-05-23 04:19:00,54.5,16.3,29.75,WSW,256,9.0,20.0,22,0.00,,,0.00,0.0,meteohub,2013-05-23 11:19:00,
2013-05-23 04:24:00,54.1,16.2,29.75,SW,224,7.0,20.0,22,0.00,,,0.00,0.0,meteohub,2013-05-23 11:24:00,
2013-05-23 04:29:00,54.0,16.0,29.76,SW,231,4.0,20.0,22,0.00,,,0.00,0.0,meteohub,2013-05-23 11:29:00,
2013-05-23 04:34:00,53.8,16.9,29.76,SW,236,1.0,20.0,23,0.00,,,0.00,0.0,meteohub,2013-05-23 11:34:00,
2013-05-23 04:39:00,53.2,17.4,29.75,WSW,251,7.0,20.0,24,0.00,,,0.00,0.0,meteohub,2013-05-23 11:39:00,
2013-05-23 04:44:00,52.9,17.1,29.75,West,261,5.0,23.0,24,0.00,,,0.00,0.0,meteohub,2013-05-23 11:44:00,
2013-05-23 04:49:00,52.9,18.0,29.75,SW,225,7.0,23.0,25,0.00,,,0.00,0.0,meteohub,2013-05-23 11:49:00,
2013-05-23 04:54:00,52.9,17.1,29.75,SW,230,12.0,23.0,24,0.00,,,0.00,0.0,meteohub,2013-05-23 11:54:00,
2013-05-23 04:59:00,53.1,17.2,29.75,SW,227,10.0,23.0,24,0.00,,,0.00,0.0,meteohub,2013-05-23 11:59:00,
2013-05-23 05:04:00,53.2,17.4,29.75,SW,228,6.0,23.0,24,0.00,,,0.00,0.0,meteohub,2013-05-23 12:04:00,
2013-05-23 05:09:00,53.2,17.4,29.75,SW,223,13.0,23.0,24,0.00,,,0.00,0.0,meteohub,2013-05-23 12:09:00,
2013-05-23 05:14:00,53.6,17.6,29.75,SW,232,10.0,23.0,24,0.00,,,0.00,0.0,meteohub,2013-05-23 12:14:00,
2013-05-23 05:19:00,53.6,17.6,29.75,WSW,238,7.0,23.0,24,0.00,,,0.00,0.0,meteohub,2013-05-23 12:19:00,
2013-05-23 05:24:00,53.4,17.6,29.75,WSW,241,10.0,23.0,24,0.00,,,0.00,0.0,meteohub,2013-05-23 12:24:00,
2013-05-23 05:29:00,53.4,17.6,29.75,SW,236,4.0,20.0,24,0.00,,,0.00,0.0,meteohub,2013-05-23 12:29:00,
2013-05-23 05:34:00,53.4,17.6,29.76,WSW,242,6.0,20.0,24,0.00,,,0.00,0.0,meteohub,2013-05-23 12:34:00,
2013-05-23 05:39:00,53.2,17.4,29.76,WSW,240,12.0,20.0,24,0.00,,,0.00,0.0,meteohub,2013-05-23 12:39:00,
2013-05-23 05:44:00,53.1,18.1,29.75,SW,236,2.0,20.0,25,0.00,,,0.00,0.0,meteohub,2013-05-23 12:44:00,
2013-05-23 05:49:00,52.9,18.0,29.75,SW,236,2.0,20.0,25,0.00,,,0.00,7.0,meteohub,2013-05-23 12:49:00,
2013-05-23 05:54:00,52.7,18.7,29.76,SW,236,6.0,20.0,26,0.00,,,0.00,11.0,meteohub,2013-05-23 12:54:00,
2013-05-23 05:59:00,53.1,19.0,29.76,SW,236,9.0,20.0,26,0.00,,,0.00,12.0,meteohub,2013-05-23 12:59:00,
2013-05-23 06:04:00,53.2,18.3,29.77,SW,225,6.0,20.0,25,0.00,,,0.00,14.0,meteohub,2013-05-23 13:04:00,
2013-05-23 06:09:00,53.2,19.2,29.77,SW,225,5.0,20.0,26,0.00,,,0.00,16.0,meteohub,2013-05-23 13:09:00,
2013-05-23 06:15:00,53.1,19.9,29.77,SW,225,0.0,20.0,27,0.00,,,0.00,19.0,meteohub,2013-05-23 13:15:00,
2013-05-23 06:20:00,53.1,19.9,29.77,SW,225,6.0,20.0,27,0.00,,,0.00,21.0,meteohub,2013-05-23 13:20:00,
2013-05-23 06:25:00,52.9,19.8,29.77,SW,225,4.0,12.0,27,0.00,,,0.00,23.0,meteohub,2013-05-23 13:25:00,
2013-05-23 06:29:00,52.9,18.9,29.77,SW,227,0.0,12.0,26,0.00,,,0.00,25.0,meteohub,2013-05-23 13:29:00,
2013-05-23 06:35:00,53.1,19.0,29.78,SW,227,0.0,12.0,26,0.00,,,0.00,26.0,meteohub,2013-05-23 13:35:00,
2013-05-23 06:40:00,53.2,21.0,29.78,SW,227,0.0,12.0,28,0.00,,,0.00,32.0,meteohub,2013-05-23 13:40:00,
2013-05-23 06:45:00,53.4,19.4,29.78,SW,227,0.0,12.0,26,0.00,,,0.00,42.0,meteohub,2013-05-23 13:45:00,
2013-05-23 06:50:00,53.8,21.4,29.78,SW,227,0.0,12.0,28,0.00,,,0.00,65.0,meteohub,2013-05-23 13:50:00,
2013-05-23 06:55:00,54.1,19.9,29.78,SW,227,0.0,12.0,26,0.00,,,0.00,91.0,meteohub,2013-05-23 13:55:00,
2013-05-23 07:00:00,54.7,20.5,29.78,SW,228,0.0,12.0,26,0.00,,,0.00,123.0,meteohub,2013-05-23 14:00:00,
2013-05-23 07:05:00,55.0,20.8,29.78,SW,228,5.0,12.0,26,0.00,,,0.00,155.0,meteohub,2013-05-23 14:05:00,
2013-05-23 07:10:00,55.6,20.3,29.78,SW,230,7.0,12.0,25,0.00,,,0.00,186.0,meteohub,2013-05-23 14:10:00,
2013-05-23 07:15:00,56.1,20.8,29.78,SW,232,2.0,12.0,25,0.00,,,0.00,213.0,meteohub,2013-05-23 14:15:00,
2013-05-23 07:20:00,56.7,21.2,29.78,West,259,5.0,12.0,25,0.00,,,0.00,229.0,meteohub,2013-05-23 14:20:00,
2013-05-23 07:25:00,57.4,20.8,29.78,SW,231,4.0,11.0,24,0.00,,,0.00,246.0,meteohub,2013-05-23 14:25:00,
2013-05-23 07:30:00,57.7,22.1,29.78,WSW,242,5.0,11.0,25,0.00,,,0.00,262.0,meteohub,2013-05-23 14:30:00,
2013-05-23 07:35:00,58.1,23.4,29.78,West,277,4.0,11.0,26,0.00,,,0.00,278.0,meteohub,2013-05-23 14:35:00,
2013-05-23 07:40:00,58.3,22.6,29.78,West,277,6.0,11.0,25,0.00,,,0.00,297.0,meteohub,2013-05-23 14:40:00,
2013-05-23 07:45:00,58.5,23.7,29.78,WNW,284,7.0,11.0,26,0.00,,,0.00,315.0,meteohub,2013-05-23 14:45:00,
2013-05-23 07:50:00,58.5,23.7,29.78,West,281,2.0,11.0,26,0.00,,,0.00,334.0,meteohub,2013-05-23 14:50:00,
2013-05-23 07:55:00,58.8,24.1,29.78,WSW,248,4.0,11.0,26,0.00,,,0.00,352.0,meteohub,2013-05-23 14:55:00,
2013-05-23 08:00:00,59.0,24.1,29.78,WNW,283,7.0,11.0,26,0.00,,,0.00,369.0,meteohub,2013-05-23 15:00:00,
2013-05-23 08:05:00,59.2,25.2,29.78,West,267,1.0,11.0,27,0.00,,,0.00,388.0,meteohub,2013-05-23 15:05:00,
2013-05-23 08:10:00,59.4,24.4,29.78,WNW,286,8.0,11.0,26,0.00,,,0.00,408.0,meteohub,2013-05-23 15:10:00,
2013-05-23 08:15:00,59.7,24.8,29.78,West,277,6.0,11.0,26,0.00,,,0.00,422.0,meteohub,2013-05-23 15:15:00,
2013-05-23 08:20:00,60.1,25.2,29.78,West,261,1.0,11.0,26,0.00,,,0.00,439.0,meteohub,2013-05-23 15:20:00,
2013-05-23 08:25:00,60.6,24.6,29.78,West,278,2.0,15.0,25,0.00,,,0.00,457.0,meteohub,2013-05-23 15:25:00,
2013-05-23 08:30:00,61.3,25.2,29.78,WSW,248,7.0,15.0,25,0.00,,,0.00,478.0,meteohub,2013-05-23 15:30:00,
2013-05-23 08:35:00,61.5,26.2,29.78,WSW,243,10.0,15.0,26,0.00,,,0.00,494.0,meteohub,2013-05-23 15:35:00,
2013-05-23 08:40:00,61.9,26.6,29.78,West,270,3.0,15.0,26,0.00,,,0.00,512.0,meteohub,2013-05-23 15:40:00,
2013-05-23 08:45:00,62.2,27.0,29.78,West,261,0.0,15.0,26,0.00,,,0.00,529.0,meteohub,2013-05-23 15:45:00,
2013-05-23 08:50:00,62.2,25.0,29.78,SW,230,5.0,15.0,24,0.00,,,0.00,547.0,meteohub,2013-05-23 15:50:00,
2013-05-23 08:55:00,62.2,27.0,29.78,WSW,242,13.0,15.0,26,0.00,,,0.00,564.0,meteohub,2013-05-23 15:55:00,
2013-05-23 09:00:00,62.4,26.1,29.78,WSW,237,5.0,15.0,25,0.00,,,0.00,577.0,meteohub,2013-05-23 16:00:00,
2013-05-23 09:05:00,62.8,26.4,29.78,WNW,296,6.0,15.0,25,0.00,,,0.00,592.0,meteohub,2013-05-23 16:05:00,
2013-05-23 09:10:00,63.1,25.7,29.78,West,259,7.0,15.0,24,0.00,,,0.00,608.0,meteohub,2013-05-23 16:10:00,
2013-05-23 09:15:00,63.5,26.1,29.78,SW,226,8.0,15.0,24,0.00,,,0.00,624.0,meteohub,2013-05-23 16:15:00,
2013-05-23 09:20:00,63.7,26.2,29.78,WNW,294,7.0,19.0,24,0.00,,,0.00,642.0,meteohub,2013-05-23 16:20:00,
2013-05-23 09:25:00,63.9,26.4,29.78,SW,215,11.0,19.0,24,0.00,,,0.00,659.0,meteohub,2013-05-23 16:25:00,
2013-05-23 09:30:00,64.4,26.8,29.78,SW,230,9.0,19.0,24,0.00,,,0.00,673.0,meteohub,2013-05-23 16:30:00,
2013-05-23 09:35:00,64.9,26.2,29.78,SW,236,8.0,19.0,23,0.00,,,0.00,687.0,meteohub,2013-05-23 16:35:00,
2013-05-23 09:40:00,65.1,27.5,29.79,WSW,242,14.0,19.0,24,0.00,,,0.00,705.0,meteohub,2013-05-23 16:40:00,
2013-05-23 09:45:00,65.1,29.3,29.79,SW,225,15.0,19.0,26,0.00,,,0.00,719.0,meteohub,2013-05-23 16:45:00,
2013-05-23 09:50:00,65.3,28.6,29.79,SW,236,3.0,19.0,25,0.00,,,0.00,731.0,meteohub,2013-05-23 16:50:00,
2013-05-23 09:55:00,65.5,30.6,29.79,SSW,209,6.0,19.0,27,0.00,,,0.00,744.0,meteohub,2013-05-23 16:55:00,
2013-05-23 10:00:00,65.7,32.5,29.79,SSW,209,5.0,19.0,29,0.00,,,0.00,758.0,meteohub,2013-05-23 17:00:00,
2013-05-23 10:06:00,66.4,34.0,29.79,SW,215,10.0,19.0,30,0.00,,,0.00,766.0,meteohub,2013-05-23 17:06:00,
2013-05-23 10:11:00,66.2,34.7,29.78,WSW,244,10.0,19.0,31,0.00,,,0.00,780.0,meteohub,2013-05-23 17:11:00,
2013-05-23 10:16:00,66.0,36.9,29.78,SW,220,11.0,19.0,34,0.00,,,0.00,793.0,meteohub,2013-05-23 17:16:00,
2013-05-23 10:21:00,66.6,36.5,29.78,WSW,238,15.0,19.0,33,0.00,,,0.00,807.0,meteohub,2013-05-23 17:21:00,
2013-05-23 10:26:00,66.6,37.4,29.78,SW,223,7.0,19.0,34,0.00,,,0.00,816.0,meteohub,2013-05-23 17:26:00,
2013-05-23 10:31:00,66.7,36.7,29.78,SW,223,10.0,19.0,33,0.00,,,0.00,835.0,meteohub,2013-05-23 17:31:00,
2013-05-23 10:36:00,66.7,34.3,29.79,SW,223,10.0,19.0,30,0.00,,,0.00,840.0,meteohub,2013-05-23 17:36:00,
2013-05-23 10:41:00,66.9,35.2,29.79,WNW,290,6.0,19.0,31,0.00,,,0.00,854.0,meteohub,2013-05-23 17:41:00,
2013-05-23 10:46:00,67.6,35.1,29.78,SW,218,9.0,19.0,30,0.00,,,0.00,865.0,meteohub,2013-05-23 17:46:00,
2013-05-23 10:51:00,67.5,35.8,29.78,SW,223,7.0,19.0,31,0.00,,,0.00,882.0,meteohub,2013-05-23 17:51:00,
2013-05-23 10:56:00,67.6,37.6,29.78,SW,232,14.0,19.0,33,0.00,,,0.00,886.0,meteohub,2013-05-23 17:56:00,
2013-05-23 11:01:00,67.6,39.0,29.78,SSW,194,5.0,21.0,35,0.00,,,0.00,893.0,meteohub,2013-05-23 18:01:00,
2013-05-23 11:06:00,68.0,37.8,29.78,South,190,4.0,21.0,33,0.00,,,0.00,905.0,meteohub,2013-05-23 18:06:00,
2013-05-23 11:11:00,68.5,38.3,29.78,South,186,4.0,21.0,33,0.00,,,0.00,916.0,meteohub,2013-05-23 18:11:00,
2013-05-23 11:16:00,69.3,37.4,29.78,SW,215,9.0,21.0,31,0.00,,,0.00,925.0,meteohub,2013-05-23 18:16:00,
2013-05-23 11:21:00,69.3,37.4,29.78,SW,225,14.0,21.0,31,0.00,,,0.00,928.0,meteohub,2013-05-23 18:21:00,
2013-05-23 11:26:00,69.3,38.1,29.78,SW,223,15.0,21.0,32,0.00,,,0.00,942.0,meteohub,2013-05-23 18:26:00,
2013-05-23 11:31:00,69.3,38.1,29.78,SW,221,5.0,21.0,32,0.00,,,0.00,953.0,meteohub,2013-05-23 18:31:00,
2013-05-23 11:36:00,69.6,37.6,29.78,SW,221,7.0,21.0,31,0.00,,,0.00,953.0,meteohub,2013-05-23 18:36:00,
2013-05-23 11:41:00,69.6,36.9,29.78,SSW,202,3.0,21.0,30,0.00,,,0.00,965.0,meteohub,2013-05-23 18:41:00,
2013-05-23 11:46:00,70.2,36.5,29.78,SW,236,3.0,21.0,29,0.00,,,0.00,972.0,meteohub,2013-05-23 18:46:00,
2013-05-23 11:51:00,70.5,37.6,29.78,SW,224,13.0,21.0,30,0.00,,,0.00,974.0,meteohub,2013-05-23 18:51:00,
2013-05-23 11:56:00,71.1,36.3,29.78,SW,221,6.0,16.0,28,0.00,,,0.00,976.0,meteohub,2013-05-23 18:56:00,
2013-05-23 12:01:00,71.2,37.4,29.78,SW,232,12.0,16.0,29,0.00,,,0.00,977.0,meteohub,2013-05-23 19:01:00,
2013-05-23 12:06:00,72.1,40.6,29.78,SW,223,6.0,16.0,32,0.00,,,0.00,990.0,meteohub,2013-05-23 19:06:00,
2013-05-23 12:11:00,72.3,39.2,29.78,SW,223,0.0,16.0,30,0.00,,,0.00,988.0,meteohub,2013-05-23 19:11:00,
2013-05-23 12:16:00,72.7,39.4,29.78,SW,221,8.0,16.0,30,0.00,,,0.00,1002.0,meteohub,2013-05-23 19:16:00,
2013-05-23 12:21:00,72.7,40.3,29.78,SSW,209,7.0,16.0,31,0.00,,,0.00,1000.0,meteohub,2013-05-23 19:21:00,
2013-05-23 12:26:00,72.7,41.2,29.78,SSW,200,7.0,16.0,32,0.00,,,0.00,1005.0,meteohub,2013-05-23 19:26:00,
2013-05-23 12:31:00,72.9,40.5,29.78,SW,222,9.0,16.0,31,0.00,,,0.00,1002.0,meteohub,2013-05-23 19:31:00,
2013-05-23 12:36:00,72.0,40.5,29.78,SSW,208,6.0,16.0,32,0.00,,,0.00,1002.0,meteohub,2013-05-23 19:36:00,
2013-05-23 12:41:00,72.0,41.4,29.78,SW,232,7.0,16.0,33,0.00,,,0.00,1013.0,meteohub,2013-05-23 19:41:00,
2013-05-23 12:46:00,72.1,40.6,29.78,SW,219,11.0,16.0,32,0.00,,,0.00,1014.0,meteohub,2013-05-23 19:46:00,
2013-05-23 12:51:00,72.1,41.4,29.78,SSW,201,4.0,16.0,33,0.00,,,0.00,1005.0,meteohub,2013-05-23 19:51:00,
2013-05-23 12:56:00,72.1,40.6,29.78,South,187,5.0,25.0,32,0.00,,,0.00,1013.0,meteohub,2013-05-23 19:56:00,
2013-05-23 13:01:00,72.0,41.4,29.78,SW,215,9.0,25.0,33,0.00,,,0.00,1016.0,meteohub,2013-05-23 20:01:00,
2013-05-23 13:06:00,72.0,42.1,29.78,SSW,207,0.0,25.0,34,0.00,,,0.00,1009.0,meteohub,2013-05-23 20:06:00,
2013-05-23 13:11:00,73.0,41.4,29.78,WSW,238,16.0,25.0,32,0.00,,,0.00,1009.0,meteohub,2013-05-23 20:11:00,
2013-05-23 13:16:00,72.9,42.1,29.78,SW,220,5.0,25.0,33,0.00,,,0.00,1009.0,meteohub,2013-05-23 20:16:00,
2013-05-23 13:21:00,72.9,42.1,29.78,SW,221,13.0,25.0,33,0.00,,,0.00,1011.0,meteohub,2013-05-23 20:21:00,
2013-05-23 13:26:00,72.9,42.8,29.78,SSW,204,6.0,25.0,34,0.00,,,0.00,1009.0,meteohub,2013-05-23 20:26:00,
2013-05-23 13:31:00,72.5,41.7,29.78,SSW,196,2.0,25.0,33,0.00,,,0.00,1002.0,meteohub,2013-05-23 20:31:00,
2013-05-23 13:36:00,72.7,43.5,29.78,SSW,213,10.0,25.0,35,0.00,,,0.00,1002.0,meteohub,2013-05-23 20:36:00,
2013-05-23 13:41:00,72.9,42.1,29.78,SSW,212,5.0,25.0,33,0.00,,,0.00,998.0,meteohub,2013-05-23 20:41:00,
2013-05-23 13:47:00,73.0,43.0,29.78,SW,227,10.0,25.0,34,0.00,,,0.00,986.0,meteohub,2013-05-23 20:47:00,
2013-05-23 13:52:00,73.6,44.2,29.78,SW,223,12.0,25.0,35,0.00,,,0.00,981.0,meteohub,2013-05-23 20:52:00,
2013-05-23 13:57:00,73.6,43.5,29.79,SW,232,13.0,23.0,34,0.00,,,0.00,977.0,meteohub,2013-05-23 20:57:00,
2013-05-23 14:02:00,73.2,43.2,29.79,SW,225,7.0,23.0,34,0.00,,,0.00,977.0,meteohub,2013-05-23 21:02:00,
2013-05-23 14:07:00,73.0,43.7,29.79,SW,220,6.0,23.0,35,0.00,,,0.00,967.0,meteohub,2013-05-23 21:07:00,
2013-05-23 14:12:00,73.0,44.4,29.79,WSW,254,21.0,23.0,36,0.00,,,0.00,962.0,meteohub,2013-05-23 21:12:00,
2013-05-23 14:17:00,72.9,44.4,29.79,SSW,213,14.0,23.0,36,0.00,,,0.00,956.0,meteohub,2013-05-23 21:17:00,
2013-05-23 14:22:00,72.7,45.0,29.79,SW,229,9.0,23.0,37,0.00,,,0.00,928.0,meteohub,2013-05-23 21:22:00,
2013-05-23 14:27:00,72.9,45.7,29.79,SSW,213,8.0,23.0,38,0.00,,,0.00,939.0,meteohub,2013-05-23 21:27:00,
2013-05-23 14:32:00,72.3,45.3,29.79,SW,234,15.0,23.0,38,0.00,,,0.00,930.0,meteohub,2013-05-23 21:32:00,
2013-05-23 14:37:00,72.0,45.7,29.79,SSW,202,6.0,23.0,39,0.00,,,0.00,921.0,meteohub,2013-05-23 21:37:00,
2013-05-23 14:42:00,72.9,45.7,29.79,SW,221,15.0,23.0,38,0.00,,,0.00,916.0,meteohub,2013-05-23 21:42:00,
2013-05-23 14:47:00,73.0,46.6,29.79,SW,236,13.0,23.0,39,0.00,,,0.00,911.0,meteohub,2013-05-23 21:47:00,
2013-05-23 14:52:00,72.9,45.7,29.79,SSW,199,10.0,23.0,38,0.00,,,0.00,900.0,meteohub,2013-05-23 21:52:00,
2013-05-23 14:57:00,72.7,45.7,29.79,SW,229,3.0,23.0,38,0.00,,,0.00,877.0,meteohub,2013-05-23 21:57:00,
2013-05-23 15:02:00,72.7,46.2,29.79,SW,224,11.0,23.0,39,0.00,,,0.00,870.0,meteohub,2013-05-23 22:02:00,
2013-05-23 15:07:00,73.2,46.0,29.79,SW,223,6.0,23.0,38,0.00,,,0.00,870.0,meteohub,2013-05-23 22:07:00,
2013-05-23 15:12:00,73.8,45.9,29.79,South,178,6.0,23.0,37,0.00,,,0.00,856.0,meteohub,2013-05-23 22:12:00,
2013-05-23 15:17:00,73.8,45.9,29.79,SSW,204,8.0,23.0,37,0.00,,,0.00,838.0,meteohub,2013-05-23 22:17:00,
2013-05-23 15:22:00,73.0,45.1,29.79,SW,221,12.0,23.0,37,0.00,,,0.00,837.0,meteohub,2013-05-23 22:22:00,
2013-05-23 15:27:00,73.2,45.3,29.79,SSW,209,6.0,23.0,37,0.00,,,0.00,817.0,meteohub,2013-05-23 22:27:00,
2013-05-23 15:32:00,72.9,45.7,29.79,SSW,205,10.0,23.0,38,0.00,,,0.00,814.0,meteohub,2013-05-23 22:32:00,
2013-05-23 15:37:00,72.1,46.4,29.79,SSW,213,7.0,23.0,40,0.00,,,0.00,791.0,meteohub,2013-05-23 22:37:00,
2013-05-23 15:42:00,72.5,46.8,29.79,SW,217,6.0,23.0,40,0.00,,,0.00,784.0,meteohub,2013-05-23 22:42:00,
2013-05-23 15:47:00,72.3,46.6,29.79,SW,221,15.0,22.0,40,0.00,,,0.00,766.0,meteohub,2013-05-23 22:47:00,
2013-05-23 15:52:00,72.1,46.4,29.78,South,171,2.0,22.0,40,0.00,,,0.00,761.0,meteohub,2013-05-23 22:52:00,
2013-05-23 15:57:00,72.0,46.4,29.79,SSW,209,15.0,22.0,40,0.00,,,0.00,745.0,meteohub,2013-05-23 22:57:00,
2013-05-23 16:03:00,71.4,46.6,29.79,SW,225,15.0,22.0,41,0.00,,,0.00,726.0,meteohub,2013-05-23 23:03:00,
2013-05-23 16:08:00,71.6,47.3,29.79,SW,224,8.0,22.0,42,0.00,,,0.00,712.0,meteohub,2013-05-23 23:08:00,
2013-05-23 16:13:00,71.8,46.8,29.79,SSW,208,4.0,22.0,41,0.00,,,0.00,696.0,meteohub,2013-05-23 23:13:00,
2013-05-23 16:18:00,72.5,47.5,29.79,WSW,237,18.0,22.0,41,0.00,,,0.00,682.0,meteohub,2013-05-23 23:18:00,
2013-05-23 16:23:00,72.3,47.3,29.79,SW,218,14.0,22.0,41,0.00,,,0.00,664.0,meteohub,2013-05-23 23:23:00,
2013-05-23 16:28:00,72.1,47.1,29.79,SW,221,10.0,22.0,41,0.00,,,0.00,643.0,meteohub,2013-05-23 23:28:00,
2013-05-23 16:33:00,71.8,46.8,29.79,WSW,245,18.0,22.0,41,0.00,,,0.00,636.0,meteohub,2013-05-23 23:33:00,
2013-05-23 16:38:00,71.1,46.8,29.80,SSW,202,5.0,20.0,42,0.00,,,0.00,617.0,meteohub,2013-05-23 23:38:00,
2013-05-23 16:43:00,71.1,48.0,29.80,SW,216,13.0,20.0,44,0.00,,,0.00,599.0,meteohub,2013-05-23 23:43:00,
2013-05-23 16:48:00,71.8,48.0,29.79,SW,225,7.0,20.0,43,0.00,,,0.00,594.0,meteohub,2013-05-23 23:48:00,
2013-05-23 16:53:00,72.0,47.7,29.79,SW,221,12.0,20.0,42,0.00,,,0.00,570.0,meteohub,2013-05-23 23:53:00,
2013-05-23 16:58:00,71.4,47.1,29.80,SW,225,12.0,20.0,42,0.00,,,0.00,543.0,meteohub,2013-05-23 23:58:00,
2013-05-23 17:03:00,70.9,47.8,29.79,SW,215,5.0,20.0,44,0.00,,,0.00,540.0,meteohub,2013-05-24 00:03:00,
2013-05-23 17:08:00,70.9,47.3,29.79,SW,234,5.0,20.0,43,0.00,,,0.00,517.0,meteohub,2013-05-24 00:08:00,
2013-05-23 17:13:00,70.7,47.7,29.79,South,188,12.0,20.0,44,0.00,,,0.00,506.0,meteohub,2013-05-24 00:13:00,
2013-05-23 17:18:00,70.7,47.7,29.79,SSW,205,5.0,20.0,44,0.00,,,0.00,485.0,meteohub,2013-05-24 00:18:00,
2013-05-23 17:23:00,70.5,46.9,29.79,South,181,5.0,20.0,43,0.00,,,0.00,466.0,meteohub,2013-05-24 00:23:00,
2013-05-23 17:28:00,70.5,46.9,29.79,SW,217,6.0,20.0,43,0.00,,,0.00,452.0,meteohub,2013-05-24 00:28:00,
2013-05-23 17:33:00,70.7,47.7,29.79,SW,222,13.0,20.0,44,0.00,,,0.00,432.0,meteohub,2013-05-24 00:33:00,
2013-05-23 17:38:00,70.3,46.2,29.79,WSW,239,8.0,20.0,42,0.00,,,0.00,420.0,meteohub,2013-05-24 00:38:00,
2013-05-23 17:43:00,70.2,46.0,29.79,SW,228,18.0,20.0,42,0.00,,,0.00,401.0,meteohub,2013-05-24 00:43:00,
2013-05-23 17:48:00,70.2,46.0,29.79,SW,223,14.0,20.0,42,0.00,,,0.00,376.0,meteohub,2013-05-24 00:48:00,
2013-05-23 17:53:00,70.2,46.0,29.79,SW,218,22.0,22.0,42,0.00,,,0.00,366.0,meteohub,2013-05-24 00:53:00,
2013-05-23 17:58:00,69.8,46.2,29.79,West,267,4.0,20.0,43,0.00,,,0.00,350.0,meteohub,2013-05-24 00:58:00,
2013-05-23 18:03:00,69.8,45.7,29.79,SW,232,9.0,20.0,42,0.00,,,0.00,327.0,meteohub,2013-05-24 01:03:00,
2013-05-23 18:08:00,69.8,45.7,29.78,WSW,238,13.0,20.0,42,0.00,,,0.00,308.0,meteohub,2013-05-24 01:08:00,
2013-05-23 18:13:00,69.6,46.8,29.79,SW,232,11.0,20.0,44,0.00,,,0.00,295.0,meteohub,2013-05-24 01:13:00,
2013-05-23 18:19:00,69.4,46.6,29.79,SW,222,16.0,20.0,44,0.00,,,0.00,271.0,meteohub,2013-05-24 01:19:00,
2013-05-23 18:24:00,69.3,46.9,29.79,SW,217,3.0,20.0,45,0.00,,,0.00,253.0,meteohub,2013-05-24 01:24:00,
2013-05-23 18:29:00,69.3,46.9,29.79,SW,220,8.0,18.0,45,0.00,,,0.00,237.0,meteohub,2013-05-24 01:29:00,
2013-05-23 18:34:00,68.9,47.3,29.79,SW,217,11.0,18.0,46,0.00,,,0.00,220.0,meteohub,2013-05-24 01:34:00,
2013-05-23 18:39:00,68.4,47.8,29.79,SW,221,11.0,18.0,48,0.00,,,0.00,202.0,meteohub,2013-05-24 01:39:00,
2013-05-23 18:44:00,67.8,46.9,29.79,SW,223,10.0,18.0,47,0.00,,,0.00,179.0,meteohub,2013-05-24 01:44:00,
2013-05-23 18:49:00,67.8,46.9,29.79,SW,230,6.0,18.0,47,0.00,,,0.00,153.0,meteohub,2013-05-24 01:49:00,
2013-05-23 18:54:00,67.6,47.3,29.80,SSW,206,4.0,18.0,48,0.00,,,0.00,128.0,meteohub,2013-05-24 01:54:00,
2013-05-23 18:59:00,67.5,47.1,29.79,SW,217,3.0,18.0,48,0.00,,,0.00,113.0,meteohub,2013-05-24 01:59:00,
2013-05-23 19:04:00,66.9,47.1,29.80,SW,220,9.0,18.0,49,0.00,,,0.00,91.0,meteohub,2013-05-24 02:04:00,
2013-05-23 19:09:00,66.6,46.8,29.79,SW,215,8.0,18.0,49,0.00,,,0.00,79.0,meteohub,2013-05-24 02:09:00,
2013-05-23 19:14:00,66.2,46.9,29.79,SW,228,11.0,18.0,50,0.00,,,0.00,63.0,meteohub,2013-05-24 02:14:00,
2013-05-23 19:19:00,65.8,46.8,29.79,SW,217,6.0,18.0,50,0.00,,,0.00,53.0,meteohub,2013-05-24 02:19:00,
2013-05-23 19:24:00,65.5,46.9,29.80,SW,225,7.0,18.0,51,0.00,,,0.00,42.0,meteohub,2013-05-24 02:24:00,
2013-05-23 19:29:00,65.3,46.8,29.80,WSW,238,9.0,18.0,51,0.00,,,0.00,33.0,meteohub,2013-05-24 02:29:00,
2013-05-23 19:34:00,64.9,46.9,29.80,WSW,238,5.0,19.0,52,0.00,,,0.00,21.0,meteohub,2013-05-24 02:34:00,
2013-05-23 19:39:00,64.6,46.6,29.81,SW,221,12.0,19.0,52,0.00,,,0.00,18.0,meteohub,2013-05-24 02:39:00,
2013-05-23 19:44:00,64.2,46.8,29.81,WSW,238,12.0,19.0,53,0.00,,,0.00,14.0,meteohub,2013-05-24 02:44:00,
2013-05-23 19:49:00,63.9,46.9,29.81,SW,223,7.0,19.0,54,0.00,,,0.00,9.0,meteohub,2013-05-24 02:49:00,
2013-05-23 19:54:00,63.5,46.6,29.82,SW,222,10.0,19.0,54,0.00,,,0.00,5.0,meteohub,2013-05-24 02:54:00,
2013-05-23 19:59:00,63.1,46.8,29.82,SW,220,9.0,19.0,55,0.00,,,0.00,0.0,meteohub,2013-05-24 02:59:00,
2013-05-23 20:04:00,63.0,46.6,29.81,SW,229,5.0,19.0,55,0.00,,,0.00,0.0,meteohub,2013-05-24 03:04:00,
2013-05-23 20:09:00,62.8,46.9,29.82,West,259,14.0,19.0,56,0.00,,,0.00,0.0,meteohub,2013-05-24 03:09:00,
2013-05-23 20:14:00,62.4,46.6,29.81,SW,219,8.0,19.0,56,0.00,,,0.00,0.0,meteohub,2013-05-24 03:14:00,
2013-05-23 20:19:00,62.2,46.4,29.82,SW,227,7.0,19.0,56,0.00,,,0.00,0.0,meteohub,2013-05-24 03:19:00,
2013-05-23 20:24:00,61.9,46.4,29.81,SW,229,9.0,19.0,57,0.00,,,0.00,0.0,meteohub,2013-05-24 03:24:00,
2013-05-23 20:29:00,61.7,46.4,29.82,SW,234,7.0,19.0,57,0.00,,,0.00,0.0,meteohub,2013-05-24 03:29:00,
2013-05-23 20:34:00,61.3,46.0,29.82,SW,223,4.0,20.0,57,0.00,,,0.00,0.0,meteohub,2013-05-24 03:34:00,
2013-05-23 20:39:00,61.3,46.4,29.82,SW,224,6.0,20.0,58,0.00,,,0.00,0.0,meteohub,2013-05-24 03:39:00,
2013-05-23 20:44:00,61.0,46.0,29.82,SW,223,0.0,20.0,58,0.00,,,0.00,0.0,meteohub,2013-05-24 03:44:00,
2013-05-23 20:49:00,60.8,46.4,29.82,SW,226,7.0,20.0,59,0.00,,,0.00,0.0,meteohub,2013-05-24 03:49:00,
2013-05-23 20:54:00,60.4,46.0,29.82,SW,219,8.0,20.0,59,0.00,,,0.00,0.0,meteohub,2013-05-24 03:54:00,
2013-05-23 20:59:00,60.3,45.9,29.83,SW,223,5.0,20.0,59,0.00,,,0.00,0.0,meteohub,2013-05-24 03:59:00,
2013-05-23 21:01:00,60.3,45.9,29.83,SW,227,10.0,20.0,59,0.00,,,0.00,0.0,meteohub,2013-05-24 04:01:00,
2013-05-23 21:06:00,60.1,46.2,29.83,SW,219,7.0,20.0,60,0.00,,,0.00,0.0,meteohub,2013-05-24 04:06:00,
2013-05-23 21:11:00,59.7,45.9,29.83,SW,221,6.0,20.0,60,0.00,,,0.00,0.0,meteohub,2013-05-24 04:11:00,
2013-05-23 21:16:00,59.5,45.7,29.83,SW,219,4.0,20.0,60,0.00,,,0.00,0.0,meteohub,2013-05-24 04:16:00,
2013-05-23 21:21:00,59.4,45.9,29.83,SW,228,9.0,20.0,61,0.00,,,0.00,0.0,meteohub,2013-05-24 04:21:00,
2013-05-23 21:26:00,59.2,45.7,29.83,SW,224,7.0,15.0,61,0.00,,,0.00,0.0,meteohub,2013-05-24 04:26:00,
2013-05-23 21:31:00,59.0,45.5,29.84,SW,228,8.0,15.0,61,0.00,,,0.00,0.0,meteohub,2013-05-24 04:31:00,
2013-05-23 21:36:00,58.8,45.9,29.84,SW,226,6.0,15.0,62,0.00,,,0.00,0.0,meteohub,2013-05-24 04:36:00,
2013-05-23 21:41:00,58.8,45.9,29.84,SW,225,14.0,15.0,62,0.00,,,0.00,0.0,meteohub,2013-05-24 04:41:00,
2013-05-23 21:46:00,58.6,45.7,29.84,SW,230,2.0,15.0,62,0.00,,,0.00,0.0,meteohub,2013-05-24 04:46:00,
2013-05-23 21:52:00,58.5,45.5,29.84,SW,227,7.0,15.0,62,0.00,,,0.00,0.0,meteohub,2013-05-24 04:52:00,
2013-05-23 21:57:00,58.3,45.3,29.84,SW,224,5.0,15.0,62,0.00,,,0.00,0.0,meteohub,2013-05-24 04:57:00,
2013-05-23 22:02:00,58.3,45.3,29.85,SW,224,9.0,15.0,62,0.00,,,0.00,0.0,meteohub,2013-05-24 05:02:00,
2013-05-23 22:07:00,57.9,45.3,29.85,SW,229,6.0,15.0,63,0.00,,,0.00,0.0,meteohub,2013-05-24 05:07:00,
2013-05-23 22:12:00,57.9,45.3,29.85,SW,218,8.0,15.0,63,0.00,,,0.00,0.0,meteohub,2013-05-24 05:12:00,
2013-05-23 22:17:00,57.9,44.6,29.86,SW,232,0.0,15.0,61,0.00,,,0.00,0.0,meteohub,2013-05-24 05:17:00,
2013-05-23 22:22:00,57.9,44.1,29.86,SW,229,4.0,14.0,60,0.00,,,0.00,0.0,meteohub,2013-05-24 05:22:00,
2013-05-23 22:27:00,58.1,43.0,29.86,SW,234,7.0,14.0,57,0.00,,,0.00,0.0,meteohub,2013-05-24 05:27:00,
2013-05-23 22:32:00,58.3,41.2,29.86,SW,222,7.0,14.0,53,0.00,,,0.00,0.0,meteohub,2013-05-24 05:32:00,
2013-05-23 22:37:00,58.5,40.5,29.86,SW,219,0.0,14.0,51,0.00,,,0.00,0.0,meteohub,2013-05-24 05:37:00,
2013-05-23 22:42:00,58.6,41.0,29.86,SW,223,8.0,14.0,52,0.00,,,0.00,0.0,meteohub,2013-05-24 05:42:00,
2013-05-23 22:47:00,58.6,41.0,29.86,SW,222,0.0,14.0,52,0.00,,,0.00,0.0,meteohub,2013-05-24 05:47:00,
2013-05-23 22:52:00,58.5,41.4,29.86,SW,221,12.0,14.0,53,0.00,,,0.00,0.0,meteohub,2013-05-24 05:52:00,
2013-05-23 22:57:00,58.5,40.8,29.86,SW,222,9.0,14.0,52,0.00,,,0.00,0.0,meteohub,2013-05-24 05:57:00,
2013-05-23 23:02:00,58.3,39.7,29.86,SW,223,0.0,14.0,50,0.00,,,0.00,0.0,meteohub,2013-05-24 06:02:00,
2013-05-23 23:07:00,58.5,38.8,29.86,SW,223,0.0,14.0,48,0.00,,,0.00,0.0,meteohub,2013-05-24 06:07:00,
2013-05-23 23:12:00,58.5,38.8,29.86,SW,223,8.0,14.0,48,0.00,,,0.00,0.0,meteohub,2013-05-24 06:12:00,
2013-05-23 23:17:00,58.3,38.1,29.86,SW,223,2.0,13.0,47,0.00,,,0.00,0.0,meteohub,2013-05-24 06:17:00,
2013-05-23 23:22:00,58.3,38.1,29.86,SW,220,0.0,13.0,47,0.00,,,0.00,0.0,meteohub,2013-05-24 06:22:00,
2013-05-23 23:27:00,58.3,38.1,29.86,SW,220,1.0,13.0,47,0.00,,,0.00,0.0,meteohub,2013-05-24 06:27:00,
2013-05-23 23:32:00,58.1,36.9,29.85,SW,219,4.0,13.0,45,0.00,,,0.00,0.0,meteohub,2013-05-24 06:32:00,
2013-05-23 23:37:00,57.9,36.7,29.86,SW,220,3.0,13.0,45,0.00,,,0.00,0.0,meteohub,2013-05-24 06:37:00,
2013-05-23 23:42:00,57.9,36.7,29.86,SW,221,5.0,13.0,45,0.00,,,0.00,0.0,meteohub,2013-05-24 06:42:00,
2013-05-23 23:47:00,57.9,36.1,29.86,SW,222,8.0,13.0,44,0.00,,,0.00,0.0,meteohub,2013-05-24 06:47:00,
2013-05-23 23:52:00,57.9,36.1,29.86,SW,223,0.0,13.0,44,0.00,,,0.00,0.0,meteohub,2013-05-24 06:52:00,
2013-05-23 23:57:00,57.7,35.4,29.86,SW,218,1.0,13.0,43,0.00,,,0.00,0.0,meteohub,2013-05-24 06:57:00,